TIME,DELAY(SENSOR),PRES,OXYGEN,RAWTEMP,T(OPTODE),TCPHASE,FLUOR,BETA(BETA700),BETA(BETA412),BETA(BETA440),CDOM,C(CSC),ED(ED412.20),ED(ED444.00),ED(ED489.60),ED(ED554.30),LU(LU412.10),LU(LU443.90),LU(LU489.70),LU(LU554.70),COMP,TILTX,TILTY,CHECK
1363406574,5810,883.7399902343750000,35.1512603759765600,562.6367187500000000,4.4041519165039060,56.2844200134277340,56,98,99,78,82,15445,0,0,0,0,2147123757,2147771958,2147576338,2147569718,982,2,13,48415
1363410170,5809,962.0200195312500000,40.1080017089843750,568.9276733398438000,4.2088780403137210,55.5909690856933600,55,97,100,78,81,15442,0,0,0,0,2147123611,2147769782,2147574052,2147568795,230,2,13,7890
1363413770,5810,971.9500122070312000,41.0847396850585940,569.8275146484375000,4.1809220314025880,55.4514503479003900,55,100,99,78,83,15442,0,0,0,0,2147121462,2147770944,2147579931,2147571940,332,3,13,14534
1363417370,5811,977.1300048828125000,40.6069183349609400,569.7553710937500000,4.1831631660461430,55.5239906311035160,55,97,99,78,81,15439,0,0,0,0,2147121636,2147770624,2147576448,2147567789,583,2,13,31096
1363420970,5808,973.0000000000000000,41.1912307739257800,570.6010131835938000,4.1568851470947270,55.4481697082519500,55,98,100,78,80,15438,0,0,0,0,2147122642,2147767652,2147572004,2147572507,293,2,13,21158
1363424570,5809,966.0399780273438000,41.7050209045410160,571.6771850585938000,4.1234259605407715,55.3839416503906250,55,99,99,77,82,15435,0,0,0,0,2147120795,2147773412,2147573586,2147571337,608,2,13,32513
1363428170,5810,967.2700195312500000,42.5414009094238300,572.7426757812500000,4.0902981758117680,55.2718811035156250,55,97,99,78,82,15434,0,0,0,0,2147120192,2147771437,2147575524,2147566244,281,2,13,38051
1363431770,5808,974.4799804687500000,42.4675712585449200,572.7648925781250000,4.0896091461181640,55.2860298156738300,54,97,99,77,81,15434,0,0,0,0,2147121545,2147768082,2147574646,2147566153,263,2,13,43902
1363435370,5809,975.0700073242188000,42.5069808959960940,572.7769775390625000,4.0892310142517090,55.2773284912109400,55,97,100,78,82,15436,0,0,0,0,2147121380,2147773385,2147575680,2147568740,408,2,13,18167
1363438970,5811,978.7700195312500000,42.2598114013671900,572.6691894531250000,4.0925850868225100,55.3125991821289060,55,98,100,77,82,15435,0,0,0,0,2147123748,2147769618,2147572800,2147569874,16,3,13,41907
1363442570,5809,982.0399780273438000,41.1970405578613300,571.4984741210938000,4.1289839744567870,55.4521102905273440,54,98,100,78,80,15375,0,0,0,0,2147120484,2147773952,2147575040,2147571254,155,3,13,37174
1363446170,5810,985.3900146484375000,40.8847007751464840,570.9296875000000000,4.1466670036315920,55.4902381896972660,54,98,100,78,81,15349,0,0,0,0,2147120978,2147774656,2147572827,2147570697,3376,2,13,31342
1363449770,5810,985.6900024414062000,40.6470985412597660,570.9956054687500000,4.1446189880371090,55.5269584655761700,54,98,100,78,82,15348,0,0,0,0,2147122285,2147772818,2147573083,2147567734,348,2,13,20575
1363453370,5810,988.4299926757812000,40.9195098876953100,571.3394775390625000,4.1339259147644040,55.4898986816406250,54,100,99,78,81,15346,0,0,0,0,2147123840,2147769664,2147573165,2147569782,3533,2,13,8139
1363456970,5811,994.1300048828125000,40.1726303100585940,570.1829833984375000,4.1698718070983890,55.5947914123535160,55,97,99,77,82,15344,0,0,0,0,2147122925,2147772562,2147573942,2147570861,26,3,13,18905
1363460570,5811,991.6400146484375000,40.0275611877441400,570.4064941406250000,4.1629281044006350,55.6145515441894500,54,98,100,78,82,15344,0,0,0,0,2147124726,2147776054,2147575579,2147568475,3375,2,13,34804
1363464170,5810,986.0900268554688000,40.6453285217285160,570.8358764648438000,4.1495838165283200,55.5254096984863300,55,98,99,78,81,15344,0,0,0,0,2147120457,2147771538,2147573878,2147567899,715,2,13,51129
1363467770,5810,982.3599853515625000,41.0387802124023440,571.6475219726562000,4.1243529319763180,55.4799690246582000,55,97,99,78,82,15344,0,0,0,0,2147127908,2147768484,2147573778,2147568073,104,2,13,57233
1363471370,5810,984.1099853515625000,41.6322784423828100,572.1140747070312000,4.1098442077636720,55.3976287841796900,54,102,99,77,81,15343,0,0,0,0,2147126756,2147774683,2147574235,2147570294,107,2,13,39463
1363474970,5810,976.5700073242188000,42.0054588317871100,573.4567260742188000,4.0680918693542480,55.3558883666992200,54,100,100,79,82,15344,0,0,0,0,2147123026,2147770706,2147572681,2147568320,471,2,13,41500
1363478570,5808,976.7600097656250000,42.4909896850585940,573.8541870117188000,4.0557270050048830,55.2923583984375000,55,98,98,78,82,15345,0,0,0,0,2147121252,2147772132,2147576192,2147571410,3531,2,13,55108
1363482170,5811,974.5800170898438000,42.0997505187988300,574.3267822265625000,4.0410227775573730,55.3512191772460940,54,97,100,78,82,15342,0,0,0,0,2147119113,2147769837,2147578340,2147569252,3534,2,13,12776
1363485770,5812,982.2999877929688000,42.6036300659179700,573.6444702148438000,4.0622501373291020,55.2694396972656250,54,102,101,78,81,15344,0,0,0,0,2147125376,2147773092,2147572662,2147571035,3414,2,13,44810
1363489370,5808,983.0599975585938000,42.6648216247558600,573.7868041992188000,4.0578231811523440,55.2618484497070300,54,97,98,77,81,15344,0,0,0,0,2147122569,2147771611,2147574637,2147570998,3593,2,13,24429
1363492970,5807,984.2500000000000000,42.4014816284179700,573.0756835937500000,4.0799431800842285,55.2978515625000000,55,98,101,79,82,15344,0,0,0,0,2147123913,2147767323,2147574948,2147569664,155,2,13,6939
1363496570,5810,994.4600219726562000,41.9159507751464840,573.0679931640625000,4.0801811218261720,55.3624801635742200,56,98,101,78,81,15347,0,0,0,0,2147122322,2147771337,2147573056,2147572068,489,2,13,37511
1363500170,5810,983.8599853515625000,41.9156799316406250,572.6591796875000000,4.0928940773010250,55.3587303161621100,54,98,99,77,82,15348,0,0,0,0,2147122102,2147770203,2147575396,2147568676,135,3,13,23919
1363503770,5811,988.1699829101562000,42.1008186340332000,572.2113037109375000,4.1068229675292970,55.3273086547851560,55,100,101,79,81,15338,0,0,0,0,2147125403,2147776722,2147576530,2147567387,196,2,13,46564
1363507370,5809,988.6400146484375000,42.2363586425781250,572.2952880859375000,4.1042118072509770,55.3085708618164060,54,97,99,78,82,15342,0,0,0,0,2147123309,2147771245,2147578230,2147572662,277,2,13,17867
1363510970,5808,989.4500122070312000,42.2093391418457000,572.1867065429688000,4.1075878143310550,55.3125610351562500,56,99,99,79,81,15340,0,0,0,0,2147125138,2147769929,2147576402,2147566454,548,2,13,32751
1363514570,5810,986.7899780273438000,42.3555908203125000,572.8441162109375000,4.0871472358703610,55.2956809997558600,55,97,100,79,82,15340,0,0,0,0,2147121097,2147775003,2147575798,2147569554,3464,3,13,21124
1363518170,5808,991.3800048828125000,42.7738304138183600,573.0579833984375000,4.0804920196533200,55.2382507324218750,55,98,100,77,82,15338,0,0,0,0,2147122322,2147767378,2147575771,2147570075,3115,2,13,34535
1363521770,5812,988.4299926757812000,42.5467109680175800,572.7930908203125000,4.0887317657470700,55.2673301696777340,55,101,101,78,82,15336,0,0,0,0,2147124123,2147771382,2147576475,2147571108,3503,2,13,29927
1363525370,5810,996.2999877929688000,41.1109886169433600,571.1605834960938000,4.1394882202148440,55.4657402038574200,55,98,99,77,82,15338,0,0,0,0,2147124589,2147769152,2147576621,2147569481,265,2,13,14598
1363528970,5810,990.6099853515625000,39.9942092895507800,570.7086181640625000,4.1535382270812990,55.6259307861328100,56,98,100,77,82,15339,0,0,0,0,2147121664,2147770413,2147576182,2147569709,237,2,13,33176
1363532570,5809,985.5000000000000000,40.9892616271972660,572.1002197265625000,4.1102790832519530,55.4926986694335940,55,97,100,78,83,15338,0,0,0,0,2147124086,2147772196,2147578249,2147569161,228,2,13,59759
1363536170,5808,990.6500244140625000,42.1891403198242200,572.6400756835938000,4.0934891700744630,55.3218116760253900,55,98,100,77,81,15328,0,0,0,0,2147125010,2147767296,2147575222,2147572032,461,2,13,23156
1363539770,5809,1001.3300170898438000,40.9728088378906250,570.8275756835938000,4.1498389244079590,55.4766502380371100,55,98,99,77,82,15326,0,0,0,0,2147122605,2147774016,2147574180,2147571428,133,2,13,6805
1363543370,5810,997.8900146484375000,40.2037010192871100,570.8344726562500000,4.1496238708496090,55.5962295532226560,55,96,100,77,82,15327,0,0,0,0,2147122240,2147772379,2147572233,2147571428,3361,2,13,59363
1363546970,5808,994.6900024414062000,40.0474510192871100,571.2144165039062000,4.1378169059753420,55.6233100891113300,55,97,100,78,82,15326,0,0,0,0,2147124745,2147773174,2147570496,2147570861,95,3,13,14612
1363550570,5807,984.4299926757812000,40.7066993713378900,572.0772705078125000,4.1109890937805180,55.5353393554687500,55,104,101,78,82,15324,0,0,0,0,2147125778,2147773339,2147577344,2147570240,401,3,13,51270
1363551956,5810,990.5300292968750000,41.5465316772460940,572.7459106445312000,4.0901989936828610,55.4142799377441400,54,99,101,78,82,15324,0,0,0,0,2147126290,2147772544,2147575186,2147570514,3348,2,13,46681
